W9IF-4 Weather Reports


Display with metric or nautical units.
time (UTC)temp
F
wind
direction
speed
MPH
gust
MPH
rain 1hr
in
rain 24hr
in
rain mn
in
humidity
%
barometer
mb
20160925140301 66 24 0.0 0.0 0.00 0.00 0.00 1016.0
20160925140201 67 24 0.0 0.0 0.00 0.00 0.00 1016.0
20160925140102 66 24 0.0 0.0 0.00 0.00 0.00 1016.0
20160925135901 66 24 0.0 0.0 0.00 0.00 0.00 1016.0
20160925135801 65 24 0.0 0.0 0.00 0.00 0.00 1016.0
20160925135701 65 24 0.0 0.0 0.00 0.00 0.00 1016.0
20160925135601 65 24 0.0 0.0 0.00 0.00 0.00 1016.0
20160925135501 66 24 0.0 0.0 0.00 0.00 0.00 1016.0
20160925135301 67 24 0.0 0.0 0.00 0.00 0.00 1015.9
20160925135101 65 24 0.0 0.0 0.00 0.00 0.00 1015.9
20160925135001 66 24 0.0 0.0 0.00 0.00 0.00 1015.9
20160925134901 66 24 0.0 0.0 0.00 0.00 0.00 1015.9
20160925134801 66 24 0.0 0.0 0.00 0.00 0.00 1015.9
20160925134701 65 24 0.0 0.0 0.00 0.00 0.00 1015.9
20160925134601 65 24 0.0 0.0 0.00 0.00 0.00 1015.9
20160925134501 65 24 0.0 0.0 0.00 0.00 0.00 1015.9
20160925134401 66 24 0.0 0.0 0.00 0.00 0.00 1015.9
20160925134301 68 24 0.0 0.0 0.00 0.00 0.00 1015.9
20160925134201 69 24 0.0 0.0 0.00 0.00 0.00 1015.9
20160925134101 69 24 0.0 0.0 0.00 0.00 0.00 1015.8
20160925134001 69 24 0.0 0.0 0.00 0.00 0.00 1015.8
20160925133702 68 24 0.0 0.0 0.00 0.00 0.00 1015.8
20160925133601 67 24 0.0 0.0 0.00 0.00 0.00 1015.8
20160925133501 67 24 0.0 0.0 0.00 0.00 0.00 1015.8
20160925133401 67 24 0.0 0.0 0.00 0.00 0.00 1015.8
20160925133301 68 24 0.0 0.0 0.00 0.00 0.00 1015.7
20160925133201 68 24 0.0 0.0 0.00 0.00 0.00 1015.7
20160925133101 69 24 0.0 0.0 0.00 0.00 0.00 1015.7
20160925132901 68 24 0.0 0.0 0.00 0.00 0.00 1015.7
20160925132801 68 48 4.0 0.0 0.00 0.00 0.00 1015.7
20160925132701 68 49 5.0 0.0 0.00 0.00 0.00 1015.7
20160925132601 68 32 5.0 0.0 0.00 0.00 0.00 1015.7
20160925132501 69 30 5.0 0.0 0.00 0.00 0.00 1015.6
20160925132401 69 30 5.0 0.0 0.00 0.00 0.00 1015.6
20160925132301 68 39 6.0 0.0 0.00 0.00 0.00 1015.6
20160925132101 67 65 3.0 0.0 0.00 0.00 0.00 1015.6
20160925132001 66 52 5.0 0.0 0.00 0.00 0.00 1015.6
20160925131801 66 59 4.0 0.0 0.00 0.00 0.00 1015.6
20160925131701 66 56 4.0 0.0 0.00 0.00 0.00 1015.6
20160925131601 66 83 3.0 0.0 0.00 0.00 0.00 1015.6
20160925131501 67 94 4.0 0.0 0.00 0.00 0.00 1015.6
20160925131401 67 52 6.0 0.0 0.00 0.00 0.00 1015.6
20160925131301 67 53 6.0 0.0 0.00 0.00 0.00 1015.6
20160925131201 66 66 6.0 0.0 0.00 0.00 0.00 1015.6
20160925131101 66 84 7.0 0.0 0.00 0.00 0.00 1015.6
20160925130901 65 98 6.0 0.0 0.00 0.00 0.00 1015.6
20160925130801 65 70 8.0 0.0 0.00 0.00 0.00 1015.6
20160925130601 64 69 6.0 0.0 0.00 0.00 0.00 1015.6
20160925130501 64 51 5.0 0.0 0.00 0.00 0.00 1015.6
20160925130301 64 55 0.0 0.0 0.00 0.00 0.00 1015.6
20160925130202 65 55 0.0 0.0 0.00 0.00 0.00 1015.6
20160925130001 64 55 0.0 0.0 0.00 0.00 0.00 1015.6
20160925125901 65 55 0.0 0.0 0.00 0.00 0.00 1015.5
20160925125801 64 66 0.0 0.0 0.00 0.00 0.00 1015.5
20160925125701 65 65 3.0 0.0 0.00 0.00 0.00 1015.5
20160925125601 64 82 3.0 0.0 0.00 0.00 0.00 1015.5
20160925125501 65 42 0.0 0.0 0.00 0.00 0.00 1015.5
20160925125401 65 42 0.0 0.0 0.00 0.00 0.00 1015.5
20160925125301 65 42 0.0 0.0 0.00 0.00 0.00 1015.6
20160925125001 65 42 0.0 0.0 0.00 0.00 0.00 1015.5
20160925124901 66 42 0.0 0.0 0.00 0.00 0.00 1015.5
20160925124801 66 42 0.0 0.0 0.00 0.00 0.00 1015.5
20160925124701 66 42 0.0 0.0 0.00 0.00 0.00 1015.5
20160925124401 66 42 0.0 0.0 0.00 0.00 0.00 1015.4
20160925124301 66 42 0.0 0.0 0.00 0.00 0.00 1015.4
20160925124201 67 42 0.0 0.0 0.00 0.00 0.00 1015.5
20160925124101 68 42 0.0 0.0 0.00 0.00 0.00 1015.4
20160925124001 68 42 0.0 0.0 0.00 0.00 0.00 1015.3
20160925123901 68 42 0.0 0.0 0.00 0.00 0.00 1015.4
20160925123801 68 42 0.0 0.0 0.00 0.00 0.00 1015.5
20160925123702 69 42 0.0 0.0 0.00 0.00 0.00 1015.5
20160925123601 70 55 5.0 0.0 0.00 0.00 0.00 1015.4
20160925123401 69 48 5.0 0.0 0.00 0.00 0.00 1015.4
20160925123301 68 53 8.0 0.0 0.00 0.00 0.00 1015.4
20160925123201 68 53 7.0 0.0 0.00 0.00 0.00 1015.4
20160925123101 68 56 6.0 0.0 0.00 0.00 0.00 1015.5
20160925123001 68 39 6.0 0.0 0.00 0.00 0.00 1015.4
20160925122901 68 49 6.0 0.0 0.00 0.00 0.00 1015.4
20160925122801 67 55 5.0 0.0 0.00 0.00 0.00 1015.4
20160925122701 67 42 6.0 0.0 0.00 0.00 0.00 1015.4
20160925122601 67 42 5.0 0.0 0.00 0.00 0.00 1015.4
20160925122501 67 44 6.0 0.0 0.00 0.00 0.00 1015.4
20160925122401 68 58 6.0 0.0 0.00 0.00 0.00 1015.4
20160925122201 67 52 7.0 0.0 0.00 0.00 0.00 1015.4
20160925122001 65 58 6.0 0.0 0.00 0.00 0.00 1015.4
20160925121901 65 56 7.0 0.0 0.00 0.00 0.00 1015.4
20160925121801 65 46 5.0 0.0 0.00 0.00 0.00 1015.4
20160925121702 65 83 3.0 0.0 0.00 0.00 0.00 1015.5
20160925121601 65 11 0.0 0.0 0.00 0.00 0.00 1015.5
20160925121501 64 11 0.0 0.0 0.00 0.00 0.00 1015.5
20160925121401 64 11 0.0 0.0 0.00 0.00 0.00 1015.5
20160925121301 65 11 0.0 0.0 0.00 0.00 0.00 1015.5
20160925121201 64 11 0.0 0.0 0.00 0.00 0.00 1015.5
20160925121101 65 11 0.0 0.0 0.00 0.00 0.00 1015.5
20160925121001 66 11 0.0 0.0 0.00 0.00 0.00 1015.5
20160925120901 65 11 0.0 0.0 0.00 0.00 0.00 1015.4
20160925120801 65 11 0.0 0.0 0.00 0.00 0.00 1015.4
20160925120702 66 11 0.0 0.0 0.00 0.00 0.00 1015.5
20160925120601 67 11 0.0 0.0 0.00 0.00 0.00 1015.5
20160925120501 67 11 0.0 0.0 0.00 0.00 0.00 1015.5
20160925120401 67 11 0.0 0.0 0.00 0.00 0.00 1015.5
20160925120301 67 11 0.0 0.0 0.00 0.00 0.00 1015.5
20160925120201 67 11 0.0 0.0 0.00 0.00 0.00 1015.5
20160925120101 67 11 0.0 0.0 0.00 0.00 0.00 1015.4
20160925120001 66 11 0.0 0.0 0.00 0.00 0.00 1015.5
20160925115901 65 11 0.0 0.0 0.00 0.00 0.00 1015.5
20160925115801 65 15 0.0 0.0 0.00 0.00 0.00 1015.5
20160925115701 64 35 3.0 0.0 0.00 0.00 0.00 1015.5
20160925115601 65 49 5.0 0.0 0.00 0.00 0.00 1015.5
20160925115501 65 51 0.0 0.0 0.00 0.00 0.00 1015.5
20160925115401 65 51 0.0 0.0 0.00 0.00 0.00 1015.5
20160925115301 65 51 0.0 0.0 0.00 0.00 0.00 1015.5
20160925115201 65 51 0.0 0.0 0.00 0.00 0.00 1015.5
20160925115101 66 51 0.0 0.0 0.00 0.00 0.00 1015.5
20160925115001 67 51 0.0 0.0 0.00 0.00 0.00 1015.5
20160925114901 66 51 0.0 0.0 0.00 0.00 0.00 1015.5
20160925114801 66 51 0.0 0.0 0.00 0.00 0.00 1015.5
20160925114701 66 51 0.0 0.0 0.00 0.00 0.00 1015.5
20160925114501 65 51 0.0 0.0 0.00 0.00 0.00 1015.5
20160925114301 65 76 5.0 0.0 0.00 0.00 0.00 1015.4
20160925114201 65 93 7.0 0.0 0.00 0.00 0.00 1015.4
20160925114101 65 91 6.0 0.0 0.00 0.00 0.00 1015.3
20160925114001 65 94 7.0 0.0 0.00 0.00 0.00 1015.4
20160925113901 65 60 6.0 0.0 0.00 0.00 0.00 1015.3
20160925113701 65 69 5.0 0.0 0.00 0.00 0.00 1015.4
20160925113601 65 48 6.0 0.0 0.00 0.00 0.00 1015.3
20160925113501 65 80 6.0 0.0 0.00 0.00 0.00 1015.3
20160925113401 65 82 6.0 0.0 0.00 0.00 0.00 1015.3
20160925113301 65 56 7.0 0.0 0.00 0.00 0.00 1015.3
20160925113201 66 76 6.0 0.0 0.00 0.00 0.00 1015.3
20160925113101 66 49 8.0 0.0 0.00 0.00 0.00 1015.3
20160925113001 65 68 8.0 0.0 0.00 0.00 0.00 1015.3
20160925112901 65 53 6.0 0.0 0.00 0.00 0.00 1015.3
20160925112801 65 48 6.0 0.0 0.00 0.00 0.00 1015.3
20160925112701 65 89 5.0 0.0 0.00 0.00 0.00 1015.3
20160925112601 64 58 7.0 0.0 0.00 0.00 0.00 1015.3
20160925112501 64 103 6.0 0.0 0.00 0.00 0.00 1015.2
20160925112401 64 65 6.0 0.0 0.00 0.00 0.00 1015.3
20160925112301 64 86 6.0 0.0 0.00 0.00 0.00 1015.2
20160925112201 64 83 6.0 0.0 0.00 0.00 0.00 1015.2
20160925112101 64 59 6.0 0.0 0.00 0.00 0.00 1015.2
20160925112001 63 44 6.0 0.0 0.00 0.00 0.00 1015.2
20160925111901 63 84 5.0 0.0 0.00 0.00 0.00 1015.2
20160925111801 63 84 4.0 0.0 0.00 0.00 0.00 1015.2
20160925111701 63 86 4.0 0.0 0.00 0.00 0.00 1015.2
20160925111601 63 86 5.0 0.0 0.00 0.00 0.00 1015.2
20160925111501 63 59 5.0 0.0 0.00 0.00 0.00 1015.3
20160925111401 63 60 5.0 0.0 0.00 0.00 0.00 1015.2
20160925111301 63 52 6.0 0.0 0.00 0.00 0.00 1015.2
20160925111201 64 70 5.0 0.0 0.00 0.00 0.00 1015.2
20160925111101 64 51 6.0 0.0 0.00 0.00 0.00 1015.3
20160925111001 64 46 6.0 0.0 0.00 0.00 0.00 1015.3
20160925110901 63 34 6.0 0.0 0.00 0.00 0.00 1015.3
20160925110801 64 45 5.0 0.0 0.00 0.00 0.00 1015.3
20160925110701 64 38 0.0 0.0 0.00 0.00 0.00 1015.3
20160925110601 65 38 0.0 0.0 0.00 0.00 0.00 1015.3
20160925110501 65 38 0.0 0.0 0.00 0.00 0.00 1015.3
20160925110401 65 38 0.0 0.0 0.00 0.00 0.00 1015.3
20160925110301 65 38 0.0 0.0 0.00 0.00 0.00 1015.3
20160925110201 64 38 0.0 0.0 0.00 0.00 0.00 1015.3
20160925110101 64 38 0.0 0.0 0.00 0.00 0.00 1015.3
20160925110001 65 38 0.0 0.0 0.00 0.00 0.00 1015.2
20160925105901 64 38 0.0 0.0 0.00 0.00 0.00 1015.2
20160925105801 65 38 0.0 0.0 0.00 0.00 0.00 1015.2
20160925105701 65 38 0.0 0.0 0.00 0.00 0.00 1015.2
20160925105601 65 38 0.0 0.0 0.00 0.00 0.00 1015.2
20160925105501 65 38 0.0 0.0 0.00 0.00 0.00 1015.2
20160925105401 65 38 0.0 0.0 0.00 0.00 0.00 1015.2
20160925105301 65 38 0.0 0.0 0.00 0.00 0.00 1015.2
20160925105201 64 38 0.0 0.0 0.00 0.00 0.00 1015.2
20160925105101 64 38 0.0 0.0 0.00 0.00 0.00 1015.3
20160925105001 64 38 2.0 0.0 0.00 0.00 0.00 1015.3
20160925104801 64 31 5.0 0.0 0.00 0.00 0.00 1015.3
20160925104701 65 15 5.0 0.0 0.00 0.00 0.00 1015.3
20160925104601 66 356 3.0 0.0 0.00 0.00 0.00 1015.2
20160925104501 66 352 5.0 0.0 0.00 0.00 0.00 1015.2
20160925104401 66 345 6.0 0.0 0.00 0.00 0.00 1015.2
20160925104301 66 350 6.0 0.0 0.00 0.00 0.00 1015.2
20160925104201 66 346 5.0 0.0 0.00 0.00 0.00 1015.2
20160925104101 66 343 6.0 0.0 0.00 0.00 0.00 1015.2
20160925104001 66 346 5.0 0.0 0.00 0.00 0.00 1015.3
20160925103901 66 333 5.0 0.0 0.00 0.00 0.00 1015.3
20160925103801 65 342 6.0 0.0 0.00 0.00 0.00 1015.3
20160925103701 64 342 5.0 0.0 0.00 0.00 0.00 1015.3
20160925103601 64 350 5.0 0.0 0.00 0.00 0.00 1015.3
20160925103501 64 3 3.0 0.0 0.00 0.00 0.00 1015.3
20160925103401 64 24 3.0 0.0 0.00 0.00 0.00 1015.3
20160925103301 64 39 4.0 0.0 0.00 0.00 0.00 1015.3
20160925103201 64 35 4.0 0.0 0.00 0.00 0.00 1015.2
20160925103101 64 32 5.0 0.0 0.00 0.00 0.00 1015.2
20160925102901 65 51 5.0 0.0 0.00 0.00 0.00 1015.2
20160925102801 65 55 3.0 0.0 0.00 0.00 0.00 1015.2
20160925102701 65 46 3.0 0.0 0.00 0.00 0.00 1015.2
20160925102501 64 46 3.0 0.0 0.00 0.00 0.00 1015.2
20160925102401 64 52 4.0 0.0 0.00 0.00 0.00 1015.2
20160925102301 64 359 0.0 0.0 0.00 0.00 0.00 1015.2
20160925102201 64 359 0.0 0.0 0.00 0.00 0.00 1015.2
20160925102101 64 359 0.0 0.0 0.00 0.00 0.00 1015.2
20160925102001 64 359 0.0 0.0 0.00 0.00 0.00 1015.3
20160925101801 64 359 3.0 0.0 0.00 0.00 0.00 1015.3
20160925101701 64 15 3.0 0.0 0.00 0.00 0.00 1015.3
20160925101601 64 23 4.0 0.0 0.00 0.00 0.00 1015.3
20160925101401 64 27 3.0 0.0 0.00 0.00 0.00 1015.3
20160925101301 64 42 4.0 0.0 0.00 0.00 0.00 1015.3
20160925101201 64 49 4.0 0.0 0.00 0.00 0.00 1015.3
20160925101101 65 25 3.0 0.0 0.00 0.00 0.00 1015.3
20160925101001 66 356 4.0 0.0 0.00 0.00 0.00 1015.3
20160925100901 66 335 5.0 0.0 0.00 0.00 0.00 1015.3
20160925100801 66 330 5.0 0.0 0.00 0.00 0.00 1015.4
20160925100702 66 346 5.0 0.0 0.00 0.00 0.00 1015.4
20160925100601 66 349 5.0 0.0 0.00 0.00 0.00 1015.4
20160925100501 66 349 5.0 0.0 0.00 0.00 0.00 1015.4
20160925100401 66 352 5.0 0.0 0.00 0.00 0.00 1015.4